This demonstration page uses our WeatherBlox Daily Observations layout. Learn more.

Left ArrowRight Arrow

41.12389, -100.76542

Hourly Observations for March 25, 2015

Temp ( °F °C ) Dew Point ( °F °C ) Humidity (%) Winds ( mph kmh ) Pressure ( in mb ) Visibility ( mi km ) Precip ( " mm )
12:53 am 00:53 Cloudy 54 12.2 27 -2.8 35 35 WNW 15 24 29.88 1012 10 16 0.00 0.03
1:53 am 01:53 Cloudy 52 11.1 29 -1.7 41 41 W 8 13 29.88 1012 10 16 0.00 0.00
2:53 am 02:53 Cloudy 52 11.1 30 -1.1 43 43 WNW 12 19 29.89 1012 10 16 0.00 0.00
3:53 am 03:53 Cloudy 51 10.6 32 0 48 48 WNW 15 24 29.86 1011 10 16 0.00 0.00
4:53 am 04:53 Cloudy 49 9.4 32 0 52 52 NW 10 17 29.90 1012 10 16 0.00 0.00
5:53 am 05:53 Cloudy 47 8.3 30 -1.1 52 52 N 17 28 29.93 1014 10 16 0.00 0.00
6:53 am 06:53 Cloudy 43 6.1 31 -0.6 63 63 N 18 30 29.97 1015 10 16 0.00 0.00
9:53 am 09:53 Cloudy 39 3.9 26 -3.3 60 60 N 13 20 30.13 1020 10 16 0.00 0.00
10:53 am 10:53 Cloudy 38 3.3 26 -3.3 62 62 N 14 22 30.17 1022 10 16 0.00 0.00
11:53 am 11:53 Cloudy 38 3.3 26 -3.3 62 62 N 15 24 30.19 1022 10 16 0.00 0.00
12:53 pm 12:53 Mostly Cloudy 40 4.4 25 -3.9 55 55 N 14 22 30.20 1023 10 16 0.00 0.00
1:53 pm 13:53 Mostly Sunny 41 5 24 -4.4 51 51 NNW 13 20 30.21 1023 10 16 0.00 0.00
2:53 pm 14:53 Sunny 44 6.7 24 -4.4 45 45 NNW 16 26 30.19 1022 10 16 0.00 0.00
3:53 pm 15:53 Sunny 47 8.3 22 -5.6 37 37 N 16 26 30.18 1022 10 16 0.00 0.00
4:53 pm 16:53 Sunny 48 8.9 22 -5.6 36 36 N 15 24 30.19 1022 10 16 0.00 0.00
5:53 pm 17:53 Sunny 50 10 22 -5.6 33 33 N 18 30 30.18 1022 10 16 0.00 0.00
6:53 pm 18:53 Sunny 47 8.3 21 -6.1 36 36 N 17 28 30.19 1022 10 16 0.00 0.00
7:53 pm 19:53 Sunny 44 6.7 21 -6.1 40 40 N 13 20 30.23 1024 10 16 0.00 0.00
8:53 pm 20:53 Clear 36 2.2 20 -6.7 52 52 N 7 11 30.26 1025 10 16 0.00 0.00
9:53 pm 21:53 Clear 31 -0.6 19 -7.2 61 61 NE 7 11 30.29 1026 10 16 0.00 0.00
10:53 pm 22:53 Clear 30 -1.1 18 -7.8 61 61 Calm 30.29 1026 10 16 0.00 0.00
11:53 pm 23:53 Clear 25 -3.9 19 -7.2 78 78 Calm 30.32 1027 10 16 0.00 0.00

Powered by AerisWeather